1504238400.62,14533,22.69,74288.0,8.63,-17.79,-18.17,0,*77
1504238401.85,14534,22.69,74292.5,8.63,-17.73,-18.07,0,*7B
1504238403.1,14535,22.69,74288.5,8.63,-17.69,-18.01,0,*77
1504238404.35,14536,22.69,74290.3,8.63,-17.73,-18.01,0,*7F
1504238405.58,14537,22.69,74290.8,8.59,-17.83,-18.11,0,*79
1504238406.83,14538,22.69,74288.5,8.59,-17.79,-18.11,0,*73
1504238408.08,14539,22.69,74288.5,8.59,-17.79,-18.07,0,*75
1504238409.31,14540,22.69,74288.3,8.59,-17.83,-18.21,0,*7A
1504238410.54,14541,22.69,74290.8,8.59,-17.83,-18.21,0,*7B
1504238411.79,14542,22.69,74288.8,8.63,-17.79,-18.07,0,*70
1504238413.03,14543,22.69,74288.8,8.63,-17.79,-18.17,0,*70
1504238414.26,14544,22.69,74288.0,8.63,-17.73,-18.07,0,*7C
1504238415.51,14545,22.69,74288.0,8.63,-17.69,-18.01,0,*70
1504238416.76,14546,22.69,74290.3,8.63,-17.69,-18.01,0,*73
1504238418.02,14547,22.69,74292.0,8.63,-17.69,-18.01,0,*72
1504238419.26,14548,22.69,74288.8,8.63,-17.69,-17.93,0,*79
1504238420.51,14549,22.69,74290.8,8.63,-17.79,-18.07,0,*7B
1504238421.76,14550,22.69,74292.0,8.63,-17.69,-18.01,0,*74
1504238423.0,14551,22.69,74288.0,8.59,-17.83,-18.11,0,*79
1504238424.23,14552,22.69,74292.0,8.59,-17.73,-18.07,0,*72
1504238425.48,14553,22.69,74288.8,8.59,-17.79,-18.07,0,*79
1504238426.72,14554,22.69,74288.8,8.63,-17.79,-18.17,0,*76
1504238427.94,14555,22.69,74290.0,8.59,-17.83,-18.25,0,*7A
1504238429.19,14556,22.69,74290.8,8.59,-17.79,-18.11,0,*7B
1504238430.42,14557,22.69,74290.8,8.59,-17.83,-18.21,0,*7C
1504238431.65,14558,22.69,74288.5,8.63,-17.73,-18.07,0,*71
1504238432.88,14559,22.69,74288.8,8.59,-17.83,-18.21,0,*72
1504238434.13,14560,22.69,74290.0,8.63,-17.79,-18.07,0,*70
1504238435.37,14561,22.69,74290.3,8.63,-17.79,-18.21,0,*75
1504238436.63,14562,22.69,74288.3,8.63,-17.79,-18.07,0,*72
1504238437.88,14563,22.69,74288.8,8.63,-17.79,-18.07,0,*73
1504238439.13,14564,22.69,74294.0,8.63,-17.73,-18.01,0,*78
1504238440.35,14565,22.69,74288.5,8.63,-17.73,-18.07,0,*7F
1504238441.59,14566,22.69,74290.0,8.59,-17.83,-18.11,0,*7D
1504238442.84,14567,22.69,74286.8,8.59,-17.93,-18.21,0,*7E
1504238444.06,14568,22.69,74290.5,8.63,-17.87,-18.17,0,*78
1504238445.32,14569,22.69,74284.8,8.63,-17.59,-17.87,0,*7C
1504238446.55,14570,22.69,74288.3,8.63,-17.69,-18.07,0,*70
1504238447.79,14571,22.69,74288.3,8.63,-17.79,-18.17,0,*71
1504238449.04,14572,22.69,74284.3,8.63,-17.79,-18.07,0,*73
1504238450.24,14573,22.69,74288.0,8.65,-17.73,-18.17,0,*7F
1504238451.49,14574,22.69,74290.8,8.63,-17.79,-18.21,0,*71
1504238452.72,14575,22.69,74288.0,8.63,-17.87,-18.21,0,*71
1504238453.97,14576,22.69,74290.0,8.63,-17.93,-18.21,0,*77
1504238455.19,14577,22.69,74286.8,8.65,-17.79,-18.17,0,*71
1504238456.43,14578,22.69,74290.5,8.63,-17.79,-18.17,0,*78
1504238457.65,14579,22.69,74288.8,8.63,-17.73,-18.17,0,*73
1504238458.88,14580,22.69,74288.5,8.63,-17.73,-18.17,0,*75
1504238460.1,14581,22.69,74290.8,8.63,-17.73,-18.17,0,*74
1504238461.35,14582,22.69,74288.5,8.63,-17.69,-18.01,0,*7B
1504238462.6,14583,22.69,74288.0,8.63,-17.79,-18.07,0,*7D
1504238463.83,14584,22.69,74290.0,8.65,-17.79,-18.07,0,*7C
1504238465.05,14585,22.69,74290.5,8.63,-17.73,-18.21,0,*75
1504238466.28,14586,22.69,74288.5,8.63,-17.69,-18.07,0,*79
1504238467.53,14587,22.69,74290.0,8.63,-17.69,-18.01,0,*7E
1504238468.74,14588,22.69,74292.0,8.65,-17.73,-18.07,0,*7A
1504238469.94,14589,22.69,74290.8,8.65,-17.73,-18.07,0,*7B
1504238471.17,14590,22.69,74290.8,8.65,-17.69,-18.01,0,*7E
1504238472.4,14591,22.69,74290.3,8.63,-17.73,-18.07,0,*74
1504238473.64,14592,22.69,74288.0,8.63,-17.79,-18.17,0,*7C
1504238474.88,14593,22.69,74292.0,8.63,-17.79,-18.17,0,*7D
1504238476.13,14594,22.69,74288.5,8.63,-17.79,-18.21,0,*7F
1504238477.35,14595,22.69,74288.5,8.63,-17.73,-18.17,0,*71
1504238478.6,14596,22.69,74290.8,8.63,-17.79,-18.07,0,*79
1504238479.85,14597,22.69,74288.8,8.63,-17.73,-18.01,0,*74
1504238481.1,14598,22.69,74292.0,8.65,-17.59,-17.93,0,*71
1504238482.38,14599,22.69,74290.3,8.63,-17.59,-17.93,0,*76
1504238483.63,14600,22.69,74288.0,8.63,-17.59,-17.87,0,*70
1504238484.89,14601,22.69,74290.8,8.63,-17.45,-17.69,0,*7C
1504238486.12,14602,22.69,74288.3,8.65,-17.41,-17.69,0,*7D
1504238487.38,14603,22.69,74290.5,8.63,-17.55,-17.87,0,*7F
1504238488.66,14604,22.69,74290.8,8.63,-17.41,-17.55,0,*72
1504238489.89,14605,22.69,74288.0,8.65,-17.31,-17.59,0,*7E
1504238491.12,14606,22.69,74288.3,8.65,-17.55,-17.87,0,*7C
1504238492.38,14607,22.69,74290.3,8.65,-17.55,-17.79,0,*7C
1504238493.63,14608,22.69,74288.3,8.63,-17.55,-17.87,0,*74
1504238494.89,14609,22.69,74288.5,8.65,-17.45,-17.79,0,*73
1504238496.14,14610,22.69,74288.5,8.65,-17.55,-17.79,0,*7A
1504238497.37,14611,22.69,74286.5,8.65,-17.55,-17.87,0,*7A
1504238498.6,14612,22.69,74292.8,8.65,-17.69,-17.93,0,*73
1504238499.85,14613,22.69,74290.3,8.67,-17.73,-18.01,0,*7F
1504238501.1,14614,22.69,74288.5,8.67,-17.69,-18.01,0,*73
1504238502.33,14615,22.69,74288.3,8.67,-17.69,-18.11,0,*73
1504238503.6,14616,22.69,74290.3,8.67,-17.63,-17.97,0,*7B
1504238504.85,14617,22.69,74292.5,8.67,-17.69,-18.01,0,*70
1504238506.08,14618,22.69,74288.8,8.67,-17.73,-18.11,0,*75
1504238507.3,14619,22.69,74288.5,8.67,-17.73,-18.17,0,*72
1504238508.53,14620,22.69,74294.8,8.67,-17.73,-18.17,0,*78
1504238509.78,14621,22.69,74290.3,8.67,-17.69,-18.01,0,*75
1504238510.98,14622,22.69,74288.5,8.65,-17.69,-18.07,0,*72
1504238512.21,14623,22.69,74290.8,8.65,-17.79,-18.07,0,*72
1504238513.41,14624,22.69,74288.0,8.65,-17.73,-18.07,0,*7F
1504238514.64,14625,22.69,74290.3,8.67,-17.83,-18.17,0,*72
1504238515.87,14626,22.69,74288.8,8.67,-17.83,-18.11,0,*77
1504238517.07,14627,22.69,74288.3,8.65,-17.73,-18.17,0,*7D
1504238518.3,14628,22.69,74292.5,8.65,-17.69,-18.01,0,*7E
1504238519.55,14629,22.69,74288.5,8.65,-17.59,-18.01,0,*7C
1504238520.78,14630,22.69,74290.3,8.65,-17.73,-18.01,0,*7C
1504238522.05,14631,22.69,74284.5,8.67,-17.63,-17.97,0,*7E
1504238523.3,14632,22.69,74292.3,8.67,-17.69,-18.01,0,*77
1504238524.55,14633,22.69,74290.5,8.67,-17.69,-18.01,0,*76
1504238525.81,14634,22.69,74288.0,8.67,-17.55,-17.83,0,*7B
1504238527.04,14635,22.69,74292.5,8.67,-17.49,-17.83,0,*77
1504238528.32,14636,22.69,74288.8,8.67,-17.41,-17.63,0,*72
1504238529.58,14637,22.69,74290.8,8.69,-17.41,-17.63,0,*7D
1504238530.81,14638,22.69,74288.0,8.69,-17.41,-17.73,0,*73
1504238532.07,14639,22.69,74286.5,8.69,-17.41,-17.63,0,*73
1504238533.28,14640,22.69,74288.5,8.69,-17.49,-17.83,0,*7B
1504238534.52,14641,22.69,74290.8,8.69,-17.41,-17.83,0,*72
1504238535.8,14642,22.69,74290.0,8.67,-17.55,-17.97,0,*7F
1504238537.05,14643,22.69,74290.0,8.67,-17.55,-17.87,0,*7F
1504238538.31,14644,22.69,74286.8,8.69,-17.55,-18.01,0,*77
1504238539.54,14645,22.69,74290.0,8.69,-17.69,-17.97,0,*79
1504238540.77,14646,22.69,74290.0,8.69,-17.69,-18.01,0,*7A
1504238541.98,14647,22.69,74290.3,8.69,-17.49,-17.83,0,*7C
1504238543.21,14648,22.69,74288.5,8.69,-17.41,-17.83,0,*7B
1504238544.45,14649,22.69,74288.8,8.69,-17.41,-17.87,0,*7E
1504238545.71,14650,22.69,74288.5,8.71,-17.35,-17.59,0,*7F
1504238546.96,14651,22.69,74292.8,8.71,-17.35,-17.59,0,*7E
1504238548.19,14652,22.69,74290.3,8.73,-17.41,-17.73,0,*74
1504238549.42,14653,22.69,74290.3,8.71,-17.35,-17.69,0,*7F
1504238550.66,14654,22.69,74290.0,8.71,-17.31,-17.59,0,*7F
1504238551.92,14655,22.69,74290.5,8.71,-17.35,-17.59,0,*7A
1504238553.12,14656,22.69,74288.0,8.73,-17.49,-17.83,0,*77
1504238554.4,14657,22.69,74288.5,8.71,-17.45,-17.79,0,*7D
1504238555.65,14658,22.69,74292.0,8.71,-17.45,-17.73,0,*78
1504238556.9,14659,22.69,74288.3,8.73,-17.45,-17.79,0,*71
1504238558.15,14660,22.69,74290.8,8.73,-17.55,-17.79,0,*7A
1504238559.37,14661,22.69,74290.5,8.73,-17.31,-17.55,0,*77
1504238560.6,14662,22.69,74290.5,8.73,-17.45,-17.87,0,*78
1504238561.85,14663,22.69,74288.5,8.73,-17.41,-17.79,0,*7C
1504238563.08,14664,22.69,74290.5,8.73,-17.45,-17.87,0,*7E
1504238564.33,14665,22.69,74290.0,8.73,-17.55,-18.01,0,*7F
1504238565.55,14666,22.69,74290.8,8.73,-17.63,-18.07,0,*7F
1504238566.79,14667,22.69,74290.8,8.73,-17.59,-17.93,0,*75
1504238568.04,14668,22.69,74290.8,8.73,-17.59,-17.93,0,*7A
1504238569.31,14669,22.69,74290.3,8.71,-17.63,-17.97,0,*74
1504238570.56,14670,22.69,74290.3,8.73,-17.45,-17.79,0,*7A
1504238571.8,14671,22.69,74290.5,8.73,-17.55,-17.93,0,*7E
1504238573.05,14672,22.69,74290.0,8.73,-17.55,-17.93,0,*7D
1504238574.29,14673,22.69,74290.0,8.73,-17.59,-18.01,0,*74
1504238575.54,14674,22.69,74290.0,8.73,-17.55,-17.79,0,*7F
1504238576.76,14675,22.69,74288.0,8.75,-17.49,-17.69,0,*74
1504238577.99,14676,22.69,74288.8,8.75,-17.35,-17.69,0,*7C
1504238579.24,14677,22.69,74288.0,8.75,-17.25,-17.69,0,*7C
1504238580.47,14678,22.69,74290.0,8.75,-17.35,-17.73,0,*79
1504238581.73,14679,22.69,74290.5,8.75,-17.41,-17.83,0,*74
1504238582.97,14680,22.69,74288.0,8.75,-17.21,-17.49,0,*72
1504238584.22,14681,22.69,74288.3,8.75,-17.21,-17.49,0,*73
1504238585.47,14682,22.69,74286.5,8.75,-17.21,-17.49,0,*70
1504238586.7,14683,22.69,74288.5,8.75,-17.35,-17.69,0,*76
1504238587.93,14684,22.69,74290.8,8.77,-17.35,-17.73,0,*78
1504238589.16,14685,22.69,74288.0,8.75,-17.49,-17.87,0,*7B
1504238590.39,14686,22.69,74292.0,8.77,-17.49,-17.87,0,*7A
1504238591.67,14687,22.69,74288.5,8.77,-17.59,-17.97,0,*7B
1504238592.96,14688,22.69,74288.3,8.77,-17.55,-17.97,0,*78
1504238594.21,14689,22.69,74288.3,8.79,-17.45,-17.79,0,*76
1504238595.47,14690,22.69,74290.0,8.79,-17.55,-17.97,0,*7F
1504238596.72,14691,22.69,74288.0,8.79,-17.63,-17.97,0,*7B
1504238597.97,14692,22.69,74290.0,8.79,-17.55,-17.93,0,*79
1504238599.22,14693,22.69,74286.8,8.79,-17.55,-17.97,0,*7C
1504238600.47,14694,22.69,74290.3,8.77,-17.69,-18.01,0,*7A
1504238601.7,14695,22.69,74288.0,8.77,-17.69,-18.11,0,*7A
1504238602.98,14696,22.69,74292.0,8.77,-17.59,-18.01,0,*7B
1504238604.24,14697,22.69,74288.5,8.79,-17.55,-17.97,0,*78
1504238605.52,14698,22.69,74288.8,8.77,-17.59,-17.97,0,*75
1504238606.75,14699,22.69,74290.0,8.79,-17.49,-17.97,0,*7B
1504238607.98,14700,22.69,74292.3,8.77,-17.69,-18.11,0,*77
1504238609.21,14701,22.69,74290.0,8.77,-17.69,-18.17,0,*70
1504238610.44,14702,22.69,74290.5,8.77,-17.73,-18.11,0,*7E
1504238611.67,14703,22.69,74292.0,8.77,-17.69,-18.11,0,*74
1504238612.93,14704,22.69,74290.3,8.77,-17.59,-17.87,0,*70
1504238614.21,14705,22.69,74288.5,8.77,-17.55,-17.97,0,*7C
1504238615.49,14706,22.69,74288.8,8.77,-17.59,-17.97,0,*73
1504238616.75,14707,22.69,74290.8,8.77,-17.41,-17.87,0,*7A
1504238617.99,14708,22.69,74290.3,8.77,-17.49,-17.87,0,*7D
1504238619.22,14709,22.69,74290.8,8.77,-17.49,-17.87,0,*7C
1504238620.46,14710,22.69,74290.0,8.79,-17.45,-17.83,0,*72
1504238621.67,14711,22.69,74290.8,8.79,-17.35,-17.69,0,*70
1504238622.9,14712,22.69,74290.3,8.81,-17.35,-17.69,0,*74
1504238624.15,14713,22.69,74290.3,8.79,-17.45,-17.79,0,*74
1504238625.43,14714,22.69,74288.0,8.81,-17.45,-17.93,0,*70
1504238626.68,14715,22.69,74288.0,8.79,-17.55,-17.97,0,*73
1504238627.96,14716,22.69,74288.0,8.81,-17.55,-17.93,0,*73
1504238629.17,14717,22.69,74284.5,8.79,-17.35,-17.83,0,*72
1504238630.42,14718,22.69,74288.0,8.81,-17.35,-17.79,0,*7F
1504238631.67,14719,22.69,74290.3,8.81,-17.35,-17.79,0,*7E
1504238632.92,14720,22.69,74288.0,8.81,-17.31,-17.63,0,*7B
1504238634.2,14721,22.69,74288.5,8.81,-17.21,-17.55,0,*7E
1504238635.45,14722,22.69,74286.8,8.81,-17.07,-17.35,0,*7F
1504238636.73,14723,22.69,74288.5,8.81,-17.17,-17.55,0,*79
1504238637.98,14724,22.69,74288.5,8.87,-17.21,-17.45,0,*7C
1504238639.24,14725,22.69,74288.8,8.85,-17.17,-17.49,0,*76
1504238640.51,14726,22.69,74288.8,8.85,-17.11,-17.59,0,*72
1504238641.76,14727,22.69,74288.8,8.85,-17.31,-17.79,0,*73
1504238643.02,14728,22.69,74288.3,8.85,-17.45,-17.87,0,*7E
1504238644.24,14729,22.69,74286.0,8.87,-17.25,-17.73,0,*70
1504238645.43,14730,22.69,74288.0,8.87,-17.35,-17.73,0,*79
1504238646.67,14731,22.69,74290.8,8.87,-17.41,-17.83,0,*74
1504238647.87,14732,22.69,74292.0,8.87,-17.35,-17.69,0,*70
1504238649.09,14733,22.69,74286.5,8.87,-17.45,-17.69,0,*76
1504238650.34,14734,22.69,74290.3,8.87,-17.25,-17.55,0,*78
1504238651.54,14735,22.69,74290.8,8.87,-17.35,-17.73,0,*7C
1504238652.77,14736,22.69,74288.5,8.87,-17.41,-17.87,0,*77
1504238654.02,14737,22.69,74284.3,8.85,-17.49,-17.93,0,*79
1504238655.25,14738,22.69,74288.3,8.85,-17.49,-17.87,0,*73
1504238656.47,14739,22.69,74290.3,8.87,-17.41,-17.73,0,*73
1504238657.69,14740,22.69,74286.0,8.87,-17.41,-17.73,0,*7D
1504238658.92,14741,22.69,74290.5,8.87,-17.41,-17.83,0,*73
1504238660.16,14742,22.69,74290.8,8.87,-17.41,-17.83,0,*70
1504238661.41,14743,22.69,74290.0,8.89,-17.41,-17.83,0,*7F
1504238662.69,14744,22.69,74288.3,8.89,-17.45,-17.97,0,*79
1504238663.94,14745,22.69,74290.3,8.91,-17.41,-17.93,0,*71
1504238665.2,14746,22.69,74288.0,8.91,-17.41,-17.79,0,*76
1504238666.45,14747,22.69,74288.0,8.89,-17.41,-17.87,0,*7F
1504238667.7,14748,22.69,74288.0,8.89,-17.41,-17.73,0,*7B
1504238668.96,14749,22.69,74288.5,8.89,-17.41,-17.83,0,*75
1504238670.22,14750,22.69,74288.3,8.89,-17.41,-17.83,0,*7D
1504238671.44,14751,22.69,74290.0,8.89,-17.35,-17.69,0,*7B
1504238672.7,14752,22.69,74288.3,8.89,-17.55,-17.83,0,*7A
1504238673.95,14753,22.69,74290.8,8.89,-17.45,-17.87,0,*7E
1504238675.18,14754,22.69,74290.3,8.91,-17.41,-17.83,0,*70
1504238676.44,14755,22.69,74284.8,8.91,-17.55,-17.97,0,*71
1504238677.66,14756,22.69,74288.5,8.89,-17.73,-18.11,0,*7E
1504238678.91,14757,22.69,74290.0,8.91,-17.55,-17.93,0,*77
1504238680.14,14758,22.69,74290.5,8.91,-17.45,-17.83,0,*78
1504238681.39,14759,22.69,74290.0,8.89,-17.55,-17.87,0,*75
1504238682.63,14760,22.69,74288.0,8.91,-17.63,-17.93,0,*76
1504238683.88,14761,22.69,74290.0,8.93,-17.69,-17.97,0,*7B
1504238685.12,14762,22.69,74288.5,8.89,-17.69,-18.01,0,*73
1504238686.4,14763,22.69,74290.3,8.89,-17.59,-18.01,0,*71
1504238687.62,14764,22.69,74290.0,8.89,-17.69,-18.11,0,*74
1504238688.84,14765,22.69,74288.3,8.91,-17.63,-18.07,0,*71
1504238690.09,14766,22.69,74288.5,8.89,-17.69,-18.01,0,*77
1504238691.29,14767,22.69,74290.0,8.91,-17.73,-18.11,0,*75
1504238692.51,14768,22.69,74288.5,8.91,-17.79,-18.07,0,*77
1504238693.73,14769,22.69,74288.5,8.91,-17.79,-18.07,0,*76
1504238694.93,14770,22.69,74290.0,8.91,-17.69,-18.21,0,*7B
1504238696.12,14771,22.69,74286.8,8.91,-17.69,-18.21,0,*7A
1504238697.32,14772,22.69,74284.3,8.91,-17.69,-18.11,0,*7A
1504238698.55,14773,22.69,74288.3,8.89,-17.69,-18.11,0,*72
1504238699.77,14774,22.69,74290.3,8.91,-17.55,-18.07,0,*74
1504238701.0,14775,22.69,74290.0,8.89,-17.73,-18.11,0,*7F
1504238702.22,14776,22.69,74284.5,8.91,-17.63,-18.07,0,*73
1504238703.44,14777,22.69,74288.5,8.89,-17.73,-18.11,0,*7D
1504238704.67,14778,22.69,74286.5,8.91,-17.79,-18.07,0,*76
1504238705.88,14779,22.69,74286.3,8.91,-17.79,-18.21,0,*73
1504238707.13,14780,22.69,74290.5,8.91,-17.63,-17.97,0,*7C
1504238708.35,14781,22.69,74290.3,8.89,-17.73,-18.17,0,*72
1504238709.56,14782,22.69,74288.8,8.89,-17.73,-18.17,0,*71
1504238710.78,14783,22.69,74288.5,8.89,-17.83,-18.17,0,*7F
1504238712.0,14784,22.69,74286.8,8.89,-17.73,-18.17,0,*77
1504238713.22,14785,22.69,74286.3,8.91,-17.63,-18.11,0,*78
1504238714.44,14786,22.69,74288.0,8.89,-17.73,-18.17,0,*75
1504238715.67,14787,22.69,74284.3,8.89,-17.69,-18.11,0,*79
1504238716.87,14788,22.69,74290.8,8.91,-17.69,-18.07,0,*78
1504238718.09,14789,22.69,74288.0,8.91,-17.59,-18.07,0,*7A
1504238719.36,14790,22.69,74284.3,8.89,-17.59,-18.01,0,*7D
1504238720.63,14791,22.69,74290.8,8.89,-17.55,-18.01,0,*70
1504238721.91,14792,22.69,74290.5,8.89,-17.45,-17.97,0,*72
1504238723.19,14793,22.69,74286.0,8.89,-17.59,-17.97,0,*7E
1504238724.46,14794,22.69,74284.3,8.89,-17.59,-17.97,0,*79
1504238725.74,14795,22.69,74286.3,8.89,-17.59,-17.97,0,*78
1504238726.94,14796,22.69,74286.3,8.91,-17.35,-17.69,0,*79
1504238728.2,14797,22.69,74284.5,8.89,-17.45,-17.87,0,*76
1504238729.44,14798,22.69,74288.8,8.91,-17.55,-17.93,0,*74
1504238730.66,14799,22.69,74288.3,8.91,-17.49,-17.93,0,*78
1504238731.94,14800,22.69,74288.0,8.89,-17.59,-17.97,0,*7B
1504238733.18,14801,22.69,74290.0,8.91,-17.63,-17.97,0,*7A
1504238734.41,14802,22.69,74286.5,8.91,-17.59,-18.11,0,*71
1504238735.63,14803,22.69,74290.0,8.91,-17.63,-18.07,0,*7E
1504238736.88,14804,22.69,74286.0,8.91,-17.41,-17.93,0,*7B
1504238738.1,14805,22.69,74288.0,8.91,-17.49,-17.93,0,*72
1504238739.35,14806,22.69,74288.0,8.91,-17.55,-17.97,0,*78
1504238740.6,14807,22.69,74284.5,8.91,-17.63,-17.97,0,*7C
1504238741.82,14808,22.69,74284.8,8.91,-17.63,-18.07,0,*75
1504238743.09,14809,22.69,74290.3,8.93,-17.55,-17.97,0,*75
1504238744.35,14810,22.69,74288.3,8.93,-17.49,-17.97,0,*70
1504238745.62,14811,22.69,74288.8,8.93,-17.63,-17.97,0,*79
1504238746.86,14812,22.69,74290.0,8.93,-17.63,-18.07,0,*7C
1504238748.06,14813,22.69,74288.5,8.91,-17.69,-18.07,0,*75
1504238749.31,14814,22.69,74286.3,8.93,-17.63,-18.07,0,*7A
1504238750.53,14815,22.69,74290.0,8.91,-17.79,-18.11,0,*75
1504238751.78,14816,22.69,74290.3,8.93,-17.79,-18.11,0,*74
1504238753.0,14817,22.69,74288.5,8.93,-17.69,-18.07,0,*73
1504238754.22,14818,22.69,74286.8,8.95,-17.73,-18.01,0,*77
1504238755.44,14819,22.69,74286.5,8.93,-17.69,-18.07,0,*7D
1504238756.69,14820,22.69,74286.8,8.93,-17.63,-18.07,0,*7D
1504238757.92,14821,22.69,74282.8,8.93,-17.49,-18.07,0,*74
1504238759.14,14822,22.69,74284.0,8.93,-17.69,-18.07,0,*75
1504238760.36,14823,22.69,74290.8,8.93,-17.69,-18.07,0,*74
1504238761.58,14824,22.69,74286.3,8.93,-17.69,-18.07,0,*73
1504238762.83,14825,22.69,74290.3,8.93,-17.55,-18.07,0,*7D
1504238764.11,14826,22.69,74290.3,8.93,-17.55,-17.97,0,*78
1504238765.36,14827,22.69,74288.0,8.93,-17.69,-17.97,0,*76
1504238766.6,14828,22.69,74288.5,8.93,-17.79,-18.07,0,*7E
1504238767.85,14829,22.69,74290.8,8.93,-17.63,-18.07,0,*74
1504238769.07,14830,22.69,74288.3,8.93,-17.69,-18.11,0,*71
1504238770.34,14831,22.69,74288.8,8.93,-17.63,-17.97,0,*7B
1504238771.57,14832,22.69,74286.3,8.93,-17.69,-18.07,0,*74
1504238772.79,14833,22.69,74290.8,8.93,-17.69,-18.07,0,*75
1504238774.02,14834,22.69,74288.3,8.93,-17.69,-18.11,0,*75
1504238775.26,14835,22.69,74286.3,8.93,-17.49,-17.93,0,*73
1504238776.54,14836,22.69,74286.8,8.93,-17.55,-17.97,0,*79
1504238777.78,14837,22.69,74286.8,8.93,-17.63,-18.07,0,*7B
1504238779.03,14838,22.69,74290.3,8.93,-17.49,-17.97,0,*7A
1504238780.3,14839,22.69,74286.5,8.93,-17.63,-17.93,0,*77
1504238781.52,14840,22.69,74286.8,8.93,-17.69,-18.11,0,*76
1504238782.77,14841,22.69,74286.3,8.93,-17.79,-18.11,0,*76
1504238783.99,14842,22.69,74286.5,8.93,-17.69,-18.07,0,*73
1504238785.22,14843,22.69,74284.8,8.93,-17.69,-18.07,0,*72
1504238786.49,14844,22.69,74286.8,8.93,-17.63,-17.97,0,*79
1504238787.72,14845,22.69,74284.5,8.93,-17.83,-18.11,0,*77
1504238788.94,14846,22.69,74290.3,8.95,-17.73,-18.01,0,*7C
1504238790.18,14847,22.69,74286.0,8.93,-17.63,-18.07,0,*7C
1504238791.41,14848,22.69,74284.5,8.93,-17.69,-18.11,0,*7E
1504238792.63,14849,22.69,74288.3,8.93,-17.69,-18.11,0,*7F
1504238793.85,14850,22.69,74288.5,8.95,-17.79,-18.17,0,*76
1504238795.09,14851,22.69,74288.8,8.95,-17.59,-17.93,0,*76
1504238796.36,14852,22.69,74284.3,8.93,-17.55,-17.97,0,*7B
1504238797.61,14853,22.69,74288.5,8.93,-17.55,-18.11,0,*7B
1504238798.89,14854,22.69,74286.8,8.93,-17.55,-17.97,0,*7D
1504238800.11,14855,22.69,74284.5,8.93,-17.69,-18.07,0,*75
1504238801.33,14856,22.69,74286.8,8.93,-17.69,-18.07,0,*76
1504238802.58,14857,22.69,74290.8,8.93,-17.79,-18.11,0,*71
1504238803.83,14858,22.69,74284.5,8.95,-17.59,-18.01,0,*7B
1504238805.09,14859,22.69,74288.5,8.93,-17.55,-17.93,0,*74
1504238806.32,14860,22.69,74288.0,8.93,-17.49,-17.83,0,*72
1504238807.59,14861,22.69,74290.0,8.93,-17.63,-17.97,0,*7E
1504238808.87,14862,22.69,74284.8,8.93,-17.63,-17.97,0,*7D
1504238810.11,14863,22.69,74286.8,8.93,-17.79,-18.11,0,*76
1504238811.36,14864,22.69,74284.3,8.93,-17.79,-18.11,0,*71
1504238812.56,14865,22.69,74286.0,8.95,-17.49,-17.87,0,*75
1504238813.8,14866,22.69,74290.8,8.95,-17.63,-18.01,0,*7F
1504238815.08,14867,22.69,74284.0,8.93,-17.63,-17.97,0,*78
1504238816.29,14868,22.69,74286.3,8.95,-17.49,-17.93,0,*7D
1504238817.57,14869,22.69,74286.5,8.93,-17.63,-17.97,0,*76
1504238818.78,14870,22.69,74286.8,8.95,-17.49,-17.93,0,*74
1504238820.03,14871,22.69,74290.3,8.95,-17.59,-18.01,0,*70
1504238821.27,14872,22.69,74288.5,8.95,-17.63,-18.01,0,*7A
1504238822.49,14873,22.69,74288.3,8.95,-17.59,-17.87,0,*73
1504238823.74,14874,22.69,74284.5,8.93,-17.63,-18.07,0,*7C
1504238824.98,14875,22.69,74284.0,8.95,-17.59,-17.93,0,*70
1504238826.23,14876,22.69,74288.0,8.93,-17.55,-17.83,0,*78
1504238827.51,14877,22.69,74290.0,8.93,-17.41,-17.93,0,*7D
1504238828.71,14878,22.69,74286.3,8.95,-17.49,-17.87,0,*79
1504238829.94,14879,22.69,74286.5,8.95,-17.45,-17.87,0,*74
1504238831.21,14880,22.69,74286.3,8.93,-17.55,-17.97,0,*74
1504238832.43,14881,22.69,74284.5,8.95,-17.49,-17.93,0,*7A
1504238833.7,14882,22.69,74286.8,8.97,-17.59,-18.01,0,*7E
1504238834.9,14883,22.69,74286.3,8.95,-17.73,-18.07,0,*73
1504238836.11,14884,22.69,74286.8,8.95,-17.63,-18.17,0,*74
1504238837.35,14885,22.69,74286.0,8.93,-17.79,-18.21,0,*7D
1504238838.59,14886,22.69,74288.3,8.95,-17.63,-18.01,0,*71
1504238839.81,14887,22.69,74286.8,8.95,-17.49,-17.93,0,*7C
1504238841.06,14888,22.69,74288.8,8.95,-17.59,-18.01,0,*76
1504238842.28,14889,22.69,74288.5,8.95,-17.59,-17.87,0,*76
1504238843.5,14890,22.69,74288.5,8.95,-17.63,-17.87,0,*77
1504238844.7,14891,22.69,74288.5,8.95,-17.49,-17.87,0,*7E
1504238845.93,14892,22.69,74284.8,8.95,-17.45,-17.87,0,*71
1504238847.15,14893,22.69,74286.5,8.95,-17.49,-17.93,0,*79
1504238848.41,14894,22.69,74288.5,8.97,-17.41,-17.87,0,*71
1504238849.67,14895,22.69,74286.5,8.97,-17.45,-17.83,0,*70
1504238850.92,14896,22.69,74290.3,8.97,-17.45,-17.83,0,*73
1504238852.16,14897,22.69,74288.3,8.95,-17.63,-17.93,0,*75
1504238853.4,14898,22.69,74286.3,8.95,-17.63,-17.93,0,*7A
1504238854.64,14899,22.69,74288.0,8.95,-17.63,-18.01,0,*7F
1504238855.88,14900,22.69,74286.8,8.95,-17.63,-18.01,0,*7E
1504238857.14,14901,22.69,74286.3,8.97,-17.45,-17.83,0,*7C
1504238858.39,14902,22.69,74290.8,8.97,-17.41,-17.73,0,*74
1504238859.58,14903,22.69,74286.5,8.99,-17.31,-17.73,0,*7C
1504238860.83,14904,22.69,74290.8,8.97,-17.45,-17.87,0,*7D
1504238862.09,14905,22.69,74286.5,8.97,-17.55,-17.87,0,*7D
1504238863.34,14906,22.69,74286.3,8.97,-17.41,-17.83,0,*7F
1504238864.6,14907,22.69,74286.8,8.97,-17.45,-17.87,0,*7E
1504238865.82,14908,22.69,74290.0,8.99,-17.55,-17.87,0,*7E
1504238867.08,14909,22.69,74286.5,8.97,-17.41,-17.83,0,*70
1504238868.33,14910,22.69,74284.5,8.97,-17.55,-17.87,0,*79
1504238869.58,14911,22.69,74286.8,8.97,-17.55,-17.83,0,*7C
1504238870.8,14912,22.69,74288.3,8.99,-17.45,-17.73,0,*7F
1504238872.03,14913,22.69,74286.0,8.99,-17.55,-17.87,0,*74
1504238873.27,14914,22.69,74288.3,8.99,-17.55,-17.97,0,*72
1504238874.5,14915,22.69,74288.3,8.99,-17.45,-17.87,0,*73
1504238875.73,14916,22.69,74288.5,8.99,-17.59,-17.87,0,*7D
1504238876.95,14917,22.69,74288.3,8.99,-17.59,-17.87,0,*7C
1504238878.2,14918,22.69,74290.0,8.99,-17.59,-17.97,0,*72
1504238879.44,14919,22.69,74288.3,8.99,-17.59,-18.01,0,*73
1504238880.67,14920,22.69,74286.0,8.99,-17.69,-17.97,0,*7A
1504238881.93,14921,22.69,74288.5,9.01,-17.63,-17.93,0,*75
1504238883.15,14922,22.69,74286.3,8.99,-17.69,-18.01,0,*78
1504238884.43,14923,22.69,74288.3,9.01,-17.63,-17.97,0,*73
1504238885.7,14924,22.69,74288.5,9.01,-17.63,-17.97,0,*74
1504238886.98,14925,22.69,74286.3,9.01,-17.55,-17.97,0,*70
1504238888.22,14926,22.69,74290.8,8.99,-17.59,-18.01,0,*7F
1504238889.42,14927,22.69,74290.3,8.99,-17.73,-18.11,0,*77
1504238890.67,14928,22.69,74288.0,9.01,-17.63,-18.11,0,*79
1504238891.92,14929,22.69,74286.0,9.01,-17.79,-18.07,0,*74
1504238893.16,14930,22.69,74288.5,9.01,-17.63,-18.07,0,*77
1504238894.36,14931,22.69,74290.8,9.03,-17.69,-18.07,0,*7E
1504238895.6,14932,22.69,74290.5,9.01,-17.79,-18.17,0,*7F
1504238896.85,14933,22.69,74286.8,9.01,-17.79,-18.07,0,*7F
1504238898.05,14934,22.69,74288.3,9.03,-17.83,-18.11,0,*78
1504238899.29,14935,22.69,74290.0,9.01,-17.93,-18.25,0,*7D
1504238900.57,14936,22.69,74288.0,9.01,-17.93,-18.31,0,*7B
1504238901.81,14937,22.69,74288.8,9.01,-17.93,-18.25,0,*7F
1504238903.01,14938,22.69,74288.0,8.99,-17.87,-18.21,0,*71
1504238904.21,14939,22.69,74290.8,8.99,-17.83,-18.21,0,*74